Tracking 17842 objects as of 31-August-2016
HD Live streaming from Space Station
objects crossing your sky now

BREEZE-M DEB

Track BREEZE-M DEB now!
10-day predictions


NORAD ID: 34254
Int'l Code: 2006-006BV
Perigee: 442.4 km
Apogee: 12,152.8 km
Inclination: 51.6 °
Period: 236.5 minutes
Semi major axis: 12668 km
RCS: 0.033 m2 (small)
Launch date: February 28, 2006
Source: Commonwealth of Independent States (former USSR) (CIS)
Launch site: TYURATAM MISSILE AND SPACE COMPLEX (TTMTR)

Note: This is SATELLITE DEBRIS
Your satellite tracking list
Your tracking list is empty





NASA's NSSDC Master Catalog

Two Line Element Set (TLE):
1 34254U 06006BV  16242.69514349  .00000315  00000-0  27335-3 0  9998
2 34254  51.5839 342.1633 4621851  87.5533 322.7231  6.08850286168469
Source of the keplerian elements: AFSPC

N2YO: 486